This is the latest recevied weather packets stored in our database for station/object KB1RMA-4. If no packets are shown the sender has not sent any weather packets the latest 10 day(s).
| Time | Temp. | Humidity | Pressure | Rain* | Wind** | Luminosity | Snow |
|---|---|---|---|---|---|---|---|
| 1787839743 | 25° C | 70% | 1018.4 hPa | 0 mm | - | 293 W/m² | - |
| 1787839437 | 25° C | 71% | 1018.2 hPa | 0 mm | - | 301 W/m² | - |
| 1787839136 | 24.44° C | 71% | 1018.3 hPa | 0 mm | - | 299 W/m² | - |
| 1787838835 | 24.44° C | 72% | 1017.9 hPa | 0 mm | - | 239 W/m² | - |
| 1787838531 | 23.89° C | 73% | 1018 hPa | 0 mm | - | 290 W/m² | - |
| 1787838229 | 23.33° C | 74% | 1018.3 hPa | 0 mm | - | 147 W/m² | - |
| 1787837928 | 23.33° C | 75% | 1018.2 hPa | 0 mm | - | 131 W/m² | - |
| 1787837627 | 22.78° C | 75% | 1018.2 hPa | 0 mm | - | 134 W/m² | - |
| 1787837323 | 22.22° C | 76% | 1018.2 hPa | 0 mm | - | 241 W/m² | - |
| 1787837019 | 22.22° C | 77% | 1018.3 hPa | 0 mm | - | 129 W/m² | - |
| 1787836718 | 22.22° C | 77% | 1018.3 hPa | 0 mm | - | 109 W/m² | - |
| 1787836413 | 21.67° C | 77% | 1018.1 hPa | 0 mm | - | 94 W/m² | - |
| 1787836108 | 21.67° C | 77% | 1018.3 hPa | 0 mm | - | 83 W/m² | - |
| 1787835804 | 21.67° C | 77% | 1018.2 hPa | 0 mm | - | 76 W/m² | - |
| 1787835503 | 21.11° C | 77% | 1018.4 hPa | 0 mm | - | 69 W/m² | - |
| 1787835198 | 21.11° C | 77% | 1018.2 hPa | 0 mm | - | 95 W/m² | - |
| 1787834898 | 21.11° C | 78% | 1018.4 hPa | 0 mm | - | 167 W/m² | - |
| 1787834597 | 20.56° C | 79% | 1018.4 hPa | 0 mm | - | 127 W/m² | - |
| 1787834292 | 20.56° C | 79% | 1018.4 hPa | 0 mm | - | 130 W/m² | - |
| 1787833988 | 20° C | 80% | 1018.4 hPa | 0 mm | - | 107 W/m² | - |
| 1787833684 | 20° C | 80% | 1018.6 hPa | 0 mm | - | 95 W/m² | - |
| 1787833379 | 20° C | 81% | 1018.5 hPa | 0 mm | - | 81 W/m² | - |
| 1787833075 | 19.44° C | 82% | 1018.4 hPa | 0 mm | - | 76 W/m² | - |
| 1787832770 | 18.89° C | 83% | 1018.4 hPa | 0 mm | - | 69 W/m² | - |
| 1787832470 | 18.89° C | 84% | 1018.3 hPa | 0 mm | - | 62 W/m² | - |
* Rain latest hour (hover to see other rain measurements)
** Current wind speed in m/s (hover to see current wind gust speed)